www.pogodaiklimat.ru

Погода и климат >> Архив погоды >> Россия >> Красноярский край >> Ермаковское


ПОГОДА в Ермаковском

  • Прогноз погоды в Ермаковском
  • Монитор погоды в Ермаковском

АРХИВ ПОГОДЫ в Ермаковском

Время (UTC), дата Ветер
(напр.,м/с)
 
Видим.   Явления Облачность Т
(С)
Тd
(С)
f
(%)
Тe
(С)
Тes
(С)
Комфортность P
(гПа)
Po
(гПа)
Тmin
(С)
Tmax
(С)
R
(мм)
R24
(мм)
S
(см)
09 12.07 ЮЗ 2 20 км 10/10 1000 м
[Sc]
+20.2 +14.2 68 +23 +23 комфорт 1012.8 978.6
12 12.07 ЮЗ 1 20 км 10/10 1000 м
[Sc]
+19.8 +14.7 72 +23 +23 комфорт 1012.2 978.1 +21.8
15 12.07 Ю 1 20 км 9/4 1000 м
[Sc diur, vesp Ac cast Cc]
+18.0 +15.6 86 +19 +19 1012.6 978.2
18 12.07 З 1 н/о 8/8 1000 м
[Sc]
+15.6 +14.7 94 +16 +16 1012.0 977.3
21 12.07 В 1 10 км 10/10 1000 м
[Sc]
+14.8 +14.1 96 +15 +15 1011.3 976.6
00 13.07 штиль 0 4000 м ливневой дождь 10/10 600 м
[Cb cap]
+15.6 +14.7 94 +15 +15 1011.6 976.9 +14.4 2
03 13.07 З 1 4000 м ливневой дождь 10/10 600 м
[Cb cap]
+16.4 +15.0 91 +17 +17 1011.7 977.1
06 13.07 СЗ 2 4000 м дымка {ливн. осадки} 10/10 600 м
[Cb cap]
+17.8 +15.4 86 +18 +18 1010.7 976.3
09 13.07 З 2 10 км 10/10 600 м
[Cb cap]
+19.6 +15.6 78 +22 +22 комфорт 1009.3 975.3
12 13.07 З 1 20 км 10/10 600 м
[Cb cap]
+20.2 +15.7 75 +24 +24 комфорт 1009.1 975.1 +21.0 3
15 13.07 ЮЗ 1 10 км 8/8 1000 м
[Sc]
+18.4 +16.4 88 +20 +20 1008.9 974.7
18 13.07 штиль 0 н/о 8/8 1000 м
[Sc]
+15.2 +14.7 97 +15 +15 1008.3 973.7
21 13.07 штиль 0 500 м туман 10/10 600 м
[Cb cap]
+15.6 +14.9 96 +15 +15 1007.5 972.9
00 14.07 штиль 0 н/о {туман} н/о +16.7 +15.9 95 +17 +17 1007.3 972.9 +14.4
03 14.07 З 2 10 км 10/10 1000 м
[Sc]
+19.2 +16.2 83 +21 +21 комфорт 1007.1 972.9
06 14.07 З 2 4000 м в посл. час ливневой дождь 10/10 600 м
[Cb cap]
+19.6 +15.6 78 +22 +22 комфорт 1007.1 973.1
09 14.07 З 2 4000 м дымка 10/10 1000 м
[Sc]
+20.0 +15.6 76 +23 +23 комфорт 1007.1 973.1
12 14.07 З 1 4000 м дымка 9/5 1000 м
[Sc Ac trans]
+20.6 +16.7 78 +25 +26 комфорт 1007.0 973.1 +20.6 0.0
15 14.07 штиль 0 2000 м дымка 5/3 1000 м
[Sc Ac trans Cc]
+18.0 +16.7 92 +18 +18 1007.5 973.2
18 14.07 штиль 0 н/о дымка 5/5 1000 м
[Sc]
+15.7 +15.0 96 +15 +15 1007.3 972.8
21 14.07 штиль 0 2000 м дымка 6/6 1000 м
[Sc]
+14.1 +13.6 97 +14 +14 1007.4 972.6
00 15.07 штиль 0 2000 м дымка ясно +14.0 +13.3 96 +14 +17 1006.9 972.3 +12.6
03 15.07 З 1 4000 м дымка 10/10 1000 м
[Sc]
+18.0 +14.9 82 +19 +19 1006.3 972.1
06 15.07 Ю 2 10 км 9/9 600 м
[Cb cap]
+22.8 +15.5 63 +27 +28 душно 1004.7 971.1
09 15.07 ЮВ 1 10 км 8/8 600 м
[Cb cap]
+24.1 +14.3 54 +27 +29 жарко 1002.8 969.4
12 15.07 З 1 10 км гроза без осадков {ливн. осадки} 10/10 600 м
[Cb cap]
+15.1 +15.0 99 +16 +16 1006.1 971.7 +24.2 19
15 15.07 З 1 10 км {гроза, ливн. осадки} 10/10 600 м
[Cb cap]
+15.0 +14.3 96 +15 +15 1006.8 972.3
18 15.07 штиль 0 н/о {гроза, ливн. осадки} 10/10 600 м
[Cb cap]
+13.7 +13.2 97 +13 +13 1006.6 971.8
21 15.07 штиль 0 10 км 10/10 600 м
[Cb cap]
+13.4 +13.0 97 +13 +13 1006.5 971.7
00 16.07 СВ 1 500 м туман 10/10 1000 м
[Sc]
+14.1 +13.4 96 +14 +14 1005.6 971.0 +13.2 1
03 16.07 СВ 2 10 км {туман} 6/6 600 м
[Cb cap]
+16.7 +13.5 81 +17 +21 1005.5 971.1
06 16.07 СВ 1 10 км {туман} 8/6 600 м
[Cb cap Ci ing]
+20.4 +14.0 67 +24 +31 комфорт 1004.3 970.4
09 16.07 СВ 1 20 км 8/8 600 м
[Cb cap Ac cast Cc]
+20.8 +15.1 70 +25 +27 комфорт 1003.9 970.1
12 16.07 ЮВ 1 10 км ливневой дождь 10/10 600 м
[Cb cap]
+18.4 +15.7 84 +20 +20 1005.0 970.8 +21.8 1
15 16.07 ЮЗ 1 10 км слаб. ливневой дождь 10/10 600 м
[Cb cap]
+16.0 +15.0 94 +17 +17 1005.9 971.5
18 16.07 штиль 0 н/о слаб. ливневой дождь 10/10 600 м
[Cb cap]
+15.4 +14.3 93 +15 +15 1005.8 971.3
21 16.07 штиль 0 10 км слаб. ливневой дождь 10/10 600 м
[Cb cap]
+14.5 +13.8 96 +14 +14 1006.2 971.6
00 17.07 СВ 1 2000 м дымка {ливн. осадки} 10/10 600 м
[Cb cap]
+15.0 +14.7 98 +15 +15 1006.6 972.1 +14.2 9
03 17.07 В 1 20 км 8/4 1000 м
[Sc Ac trans Cc]
+20.6 +16.8 79 +25 +30 комфорт 1005.7 972.0
06 17.07 В 1 20 км 6/4 1000 м
[Sc Ac trans Cc]
+23.7 +14.2 55 +26 +35 жарко 1005.3 971.8
09 17.07 З 1 20 км 8/6 600 м
[Cb cap Ac trans]
+24.5 +14.8 55 +27 +30 жарко 1005.5 972.0
12 17.07 Ю 1 20 км 9/8 600 м
[Cb cap Ac trans]
+23.8 +15.3 59 +27 +27 жарко 1006.4 972.8 +25.0
15 17.07 штиль 0 10 км 10/10 600 м
[Cb cap]
+20.4 +16.8 80 +23 +23 комфорт 1007.6 973.7
18 17.07 СВ 1 н/о 8/8 600 м
[Cb cap]
+17.2 +15.8 91 +18 +18 1007.6 973.2
21 17.07 СВ 1 10 км 6/3 1000 м
[Sc Ac trans]
+15.2 +14.5 96 +16 +16 1007.3 972.7
00 18.07 штиль 0 500 м туман 3/0
[Ac trans]
+15.8 +14.8 94 +16 +18 1006.7 972.3 +14.8
03 18.07 СЗ 2 20 км {туман} 1/0
[Ci fib]
+23.0 +17.0 69 +28 +38 душно 1005.8 972.2
06 18.07 СВ 1 20 км {туман} 3/0
[Ac lent Cc]
+26.8 +16.1 52 +30 +44 душно 1004.1 971.0
09 18.07 В 1 20 км 4/0
[Ac lent Ci fib]
+28.9 +15.2 43 +31 +41 жарко 1002.0 969.2
12 18.07 З 2 20 км 8/8 600 м
[Cb cap]
+25.7 +19.0 67 +31 +31 очень
душно
1003.1 969.9 +29.0
15 18.07 СВ 1 10 км 10/10 600 м
[Cb cap]
+21.3 +18.1 82 +26 +26 душно 1003.6 969.9
18 18.07 СЗ 2
{10}
н/о 9/9 600 м
[Cb cap]
+19.6 +13.3 67 +22 +22 комфорт 1006.0 971.9
21 18.07 штиль 0 10 км 8/8 600 м
[Cb cap]
+16.2 +14.5 90 +16 +16 1006.6 972.2
00 19.07 штиль 0 20 км 8/3 1000 м
[Sc Ac lent Cc]
+16.8 +15.4 91 +17 +18 1007.7 973.3 +15.1
03 19.07 СЗ 1 20 км 8/3 1000 м
[Sc Ac lent Cc]
+23.0 +15.7 63 +27 +33 душно 1006.5 972.8
06 19.07 ЮВ 1 20 км 8/6 600 м
[Cb cap Ac trans Cc]
+25.0 +13.4 49 +27 +33 жарко 1005.5 972.1

 

Местоположение метеостанции Ермаковское (Красноярский край, Россия): широта 53.30 долгота 92.42 высота над уровнем моря 298 м.

В архиве по умолчанию представлена погода в Ермаковском за последнюю неделю. Архивные данные за месяц целиком и за предыдущие месяцы, начиная с января 2011 года, Вы можете получить, выбрав интересующий диапазон дат из раскрывающегося списка и нажав кнопку "Ввод!".


*Определитесь, кто Вы:
робот инопланетянин человек

Внимание! Время в таблицах - всемирное. Для получения местного времени необходимо прибавить поправку, которая равна 7 ч.

Смотрите также архив погоды в соседних городах и на ближайших метеорологических станциях:

Погода в Каратузском (Красноярский край, Россия) (44 км)
Погода в Теси (Красноярский край, Россия) (65 км)
Погода в Минусинске (Красноярский край, Россия) (67 км)
Погода в Курагино (Красноярский край, Россия) (69 км)
Погода в Саяногорске (Хакасия, Россия) (70 км)
Погода в Оленьей Речке (Красноярский край, Россия) (78 км)
Погода в Черемушках (Хакасия, Россия) (87 км)
Погода в Карловом Створе (Хакасия, Россия) (88 км)
Погода в Хакасской (Хакасия, Россия) (90 км)
Погода в Бее (Хакасия, Россия) (104 км)

Пояснения к столбцам:

Ветер - указаны скорость ветра в м/с - средняя за 10 мин, порывы в срок и между сроками (в фигурных скобках) и направление, откуда дует ветер: С - северный, СВ - северо-восточный, В - восточный, ЮВ - юго-восточный, Ю - южный, ЮЗ - юго-западный, З - западный, СЗ - северо-западный.
Видимость - горизонтальная дальность видимости в метрах или километрах. При видимости от 1 до 10 км при отсутствии осадков обычно наблюдается дымка, при ухудшении видимости до 1 км и менее - туман. В сухую погоду видимость может ухудшаться дымом, пылью или мглою.
Явления - указаны атмосферные явления, наблюдавшиеся в срок или в последний час перед сроком; фигурными скобками обозначены явления, наблюдавшиеся между сроками (за 1-3 часа до срока); квадратными скобками обозначены град или гололедные отложения с указанием их диаметра в мм.
Облачность - указаны через наклонную черту общая и нижняя облачность в баллах и высота нижней границы облаков в метрах; квадратными скобками обозначены формы облаков: Ci - перистые, Cs - перисто-слоистые, Cc - перисто-кучевые, Ac - высококучевые, As - высокослоистые, Sc - слоисто-кучевые, Ns - слоисто-дождевые, Cu - кучевые, Cb - кучево-дождевые. Подробнее классификацию облаков см. в Атласе облаков (PDF).
T - Температура воздуха - температура, измеренная на высоте 2 м над землей.
Td - Температура точки росы - температура, при понижении до которой содержащийся в воздухе водяной пар достигнет насыщения.
f - Относительная влажность воздуха - влажноcть воздуха, измеренная на высоте 2 м над землей.
Te - Эффективная температура - температура, которую ощущает одетый по сезону человек в тени. Характеристика душности погоды. При расчете учитывается влияние влажности воздуха и скорости ветра на теплоощущения человека.
Tes - Эффективная температура на солнце - температура, которую ощущает человек, с поправкой на солнечный нагрев. Характеристика знойности погоды. Зависит от высоты солнца над горизонтом, облачности и скорости ветра. Ночью, в пасмурную погоду, а также при ветре 12 м/с и более поправка равна нулю.
P - Атмосферное давление - приведенное к уровню моря атмосферное давление.
Po - Атмосферное давление - измеренное на уровне метеостанции атмосферное давление.
Tmin - Минимальная температура - минимум температуры воздуха на высоте 2 м над землей.
Tmax - Максимальная температура - максимум температуры воздуха на высоте 2 м над землей.
R - Количество осадков - Количество выпавших осадков за период времени, мм. При наведении курсора мыши на число - период времени, за который выпало указанное количество осадков.
R24 - Количество осадков - Количество выпавших осадков за 24 часа, мм.
S - Снежный покров - Высота снежного покрова, см. При наведении курсора мыши на число - состояние снежного покрова и степень покрытия местности в баллах.